Tracking 19242 objects as of 18-Sep-2018
HD Live streaming from Space Station
objects crossing your sky now

FENGYUN 1C DEB

Track FENGYUN 1C DEB now!
10-day predictions


NORAD ID: 36248
Int'l Code: 1999-025DVZ
Perigee: 800.0 km
Apogee: 1,114.0 km
Inclination: 98.1 °
Period: 104.0 minutes
Semi major axis: 7327 km
RCS: 0.0062 m2 (small)
Launch date: May 10, 1999
Source: People's Republic of China (PRC)
Launch site: Taiyaun Space Center, China (TSC)

Note: This is SATELLITE DEBRIS
aabbcc
Your satellite tracking list
Your tracking list is empty




NASA's NSSDC Master Catalog

Two Line Element Set (TLE):
1 36248U 99025DVZ 18258.93754161 +.00000722 +00000-0 +57126-3 0  9993
2 36248 098.1478 066.5969 0214252 000.5537 359.5821 13.83973770253370
Source of the keplerian elements: AFSPC